,,,PA_Meas_PMT16A,,PR_Meas_QMR101_102,,RH_Meas_QMH101,,SR_Meas_QMS101,,TA_Meas_QMH101,,GenWind,,GenWind,
date,time,status,PA,status,PR,status,RH,status,SR,status,TA,status,DirAvg,status,SpdAvg,
2011-05-02, 00:00:04,VALID,1001.97,VALID,0,INVALID,163.655,VALID,0,VALID,25.1832,VALID,347,VALID,0.472266,
2011-05-02, 00:01:04,VALID,1001.94,VALID,0,INVALID,163.678,VALID,0,VALID,25.1423,VALID,347,VALID,0.544922,
2011-05-02, 00:02:04,VALID,1001.91,VALID,0,INVALID,163.662,VALID,0,VALID,25.1229,VALID,347,VALID,0.455859,
2011-05-02, 00:03:04,VALID,1001.88,VALID,0,INVALID,163.662,VALID,0,VALID,25.1053,VALID,347,VALID,0.519922,
2011-05-02, 00:04:04,VALID,1001.87,VALID,0,INVALID,163.639,VALID,0,VALID,25.0858,VALID,347,VALID,0.341797,
2011-05-02, 00:05:04,VALID,1001.85,VALID,0,INVALID,163.655,VALID,0,VALID,25.0663,VALID,347,VALID,0.407422,
2011-05-02, 00:06:04,VALID,1001.84,VALID,0,INVALID,163.639,VALID,0,VALID,25.0469,VALID,347,VALID,0.5875,
2011-05-02, 00:07:04,VALID,1001.86,VALID,0,INVALID,163.662,VALID,0,VALID,25.0274,VALID,347,VALID,0.453906,
2011-05-02, 00:08:04,VALID,1001.82,VALID,0,INVALID,163.655,VALID,0,VALID,24.9866,VALID,347,VALID,0.44375,
2011-05-02, 00:09:04,VALID,1001.83,VALID,0,INVALID,163.662,VALID,0,VALID,24.9671,VALID,347,VALID,0.334375,
2011-05-02, 00:10:04,VALID,1001.85,VALID,0,INVALID,163.655,VALID,0,VALID,24.9866,VALID,347,VALID,0.373047,
2011-05-02, 00:11:04,VALID,1001.82,VALID,0,INVALID,163.655,VALID,0,VALID,24.9866,VALID,347,VALID,0.310156,
2011-05-02, 00:12:04,VALID,1001.83,VALID,0,INVALID,163.662,VALID,0,VALID,24.9866,VALID,347,VALID,0.44375,
2011-05-02, 00:13:04,VALID,1001.84,VALID,0,INVALID,163.662,VALID,0,VALID,25.006,VALID,347,VALID,0.437891,
2011-05-02, 00:14:04,VALID,1001.84,VALID,0,INVALID,163.693,VALID,0,VALID,25.0255,VALID,347,VALID,0.360938,
2011-05-02, 00:15:04,VALID,1001.83,VALID,0,INVALID,163.678,VALID,0,VALID,25.0255,VALID,347,VALID,0.393359,
2011-05-02, 00:16:04,VALID,1001.81,VALID,0,INVALID,163.662,VALID,0,VALID,25.0255,VALID,347,VALID,0.494141,
2011-05-02, 00:17:04,VALID,1001.8,VALID,0,INVALID,163.662,VALID,0,VALID,25.045,VALID,17,VALID,0.605859,
2011-05-02, 00:18:04,VALID,1001.78,VALID,0,INVALID,163.647,VALID,0,VALID,25.0858,VALID,16,VALID,0.405078,
2011-05-02, 00:19:04,VALID,1001.76,VALID,0,INVALID,163.662,VALID,0,VALID,25.0858,VALID,8,VALID,0.646875,
2011-05-02, 00:20:04,VALID,1001.72,VALID,0,INVALID,163.647,VALID,0,VALID,25.0839,VALID,8,VALID,0.635938,
2011-05-02, 00:21:04,VALID,1001.69,VALID,0,INVALID,163.662,VALID,0,VALID,25.0839,VALID,7,VALID,0.43125,
2011-05-02, 00:22:04,VALID,1001.71,VALID,0,INVALID,163.662,VALID,0,VALID,25.1034,VALID,7,VALID,0.383594,
2011-05-02, 00:23:04,VALID,1001.66,VALID,0,INVALID,163.678,VALID,0,VALID,25.1034,VALID,6,VALID,0.547266,
2011-05-02, 00:24:04,VALID,1001.68,VALID,0,INVALID,163.685,VALID,0,VALID,25.1053,VALID,6,VALID,0.360938,
2011-05-02, 00:25:04,VALID,1001.65,VALID,0,INVALID,163.662,VALID,0,VALID,25.0839,VALID,5,VALID,0.308984,
2011-05-02, 00:26:04,VALID,1001.65,VALID,0,INVALID,163.639,VALID,0,VALID,25.0839,VALID,5,VALID,0.316406,
2011-05-02, 00:27:04,VALID,1001.66,VALID,0,INVALID,163.67,VALID,0,VALID,25.0858,VALID,5,VALID,0.197266,
2011-05-02, 00:28:04,VALID,1001.65,VALID,0,INVALID,163.67,VALID,0,VALID,25.1053,VALID,5,VALID,0.189453,
2011-05-02, 00:29:04,VALID,1001.62,VALID,0,INVALID,163.639,VALID,0,VALID,25.1053,VALID,5,VALID,0.286719,
2011-05-02, 00:30:04,VALID,1001.59,VALID,0,INVALID,163.67,VALID,0,VALID,25.0839,VALID,5,VALID,0.358594,
2011-05-02, 00:31:04,VALID,1001.56,VALID,0,INVALID,163.655,VALID,0.100563,VALID,25.0839,VALID,5,VALID,0.617578,
2011-05-02, 00:32:04,VALID,1001.54,VALID,0,INVALID,163.678,VALID,0,VALID,25.0644,VALID,5,VALID,0.581641,
2011-05-02, 00:33:04,VALID,1001.53,VALID,0,INVALID,163.662,VALID,0,VALID,25.0663,VALID,5,VALID,0.273438,
2011-05-02, 00:34:04,VALID,1001.51,VALID,0,INVALID,163.67,VALID,0,VALID,25.0255,VALID,5,VALID,0,
2011-05-02, 00:35:04,VALID,1001.5,VALID,0,INVALID,163.655,VALID,0,VALID,24.9866,VALID,5,VALID,0,
2011-05-02, 00:36:04,VALID,1001.5,VALID,0,INVALID,163.67,VALID,0,VALID,24.9885,VALID,5,VALID,0,
2011-05-02, 00:37:04,VALID,1001.47,VALID,0,INVALID,163.685,VALID,0,VALID,24.9671,VALID,5,VALID,0,
2011-05-02, 00:38:04,VALID,1001.46,VALID,0,INVALID,163.693,VALID,0,VALID,24.9476,VALID,1,VALID,0,
2011-05-02, 00:39:04,VALID,1001.46,VALID,0,INVALID,163.693,VALID,0,VALID,24.9282,VALID,1,VALID,0,
2011-05-02, 00:40:04,VALID,1001.47,VALID,0,INVALID,163.67,VALID,0,VALID,24.9495,VALID,1,VALID,0,
2011-05-02, 00:41:04,VALID,1001.44,VALID,0,INVALID,163.693,VALID,0,VALID,24.8911,VALID,1,VALID,0,
2011-05-02, 00:42:04,VALID,1001.45,VALID,0,INVALID,163.708,VALID,0,VALID,24.8697,VALID,1,VALID,0,
2011-05-02, 00:43:04,VALID,1001.41,VALID,0,INVALID,163.678,VALID,0,VALID,24.8697,VALID,1,VALID,0,
2011-05-02, 00:44:04,VALID,1001.39,VALID,0,INVALID,163.662,VALID,0,VALID,24.8697,VALID,1,VALID,0,
2011-05-02, 00:45:04,VALID,1001.41,VALID,0,INVALID,163.693,VALID,0,VALID,24.8716,VALID,1,VALID,0,
2011-05-02, 00:46:04,VALID,1001.34,VALID,0,INVALID,163.693,VALID,0,VALID,24.8503,VALID,1,VALID,0,
2011-05-02, 00:47:04,VALID,1001.35,VALID,0,INVALID,163.693,VALID,0,VALID,24.8503,VALID,1,VALID,0,
2011-05-02, 00:48:04,VALID,1001.32,VALID,0,INVALID,163.662,VALID,0,VALID,24.8308,VALID,360,VALID,0,
2011-05-02, 00:49:04,VALID,1001.29,VALID,0,INVALID,163.67,VALID,0,VALID,24.8327,VALID,360,VALID,0,
2011-05-02, 00:50:04,VALID,1001.26,VALID,0,INVALID,163.67,VALID,0,VALID,24.8327,VALID,360,VALID,0,
2011-05-02, 00:51:04,VALID,1001.27,VALID,0,INVALID,163.685,VALID,0,VALID,24.8113,VALID,360,VALID,0,
2011-05-02, 00:52:04,VALID,1001.24,VALID,0,INVALID,163.678,VALID,0,VALID,24.8113,VALID,360,VALID,0,
2011-05-02, 00:53:04,VALID,1001.22,VALID,0,INVALID,163.716,VALID,0,VALID,24.8113,VALID,360,VALID,0,
2011-05-02, 00:54:04,VALID,1001.2,VALID,0,INVALID,163.708,VALID,0,VALID,24.8113,VALID,360,VALID,0,
2011-05-02, 00:55:04,VALID,1001.18,VALID,0,INVALID,163.693,VALID,0,VALID,24.8113,VALID,360,VALID,0,
2011-05-02, 00:56:04,VALID,1001.16,VALID,0,INVALID,163.685,VALID,0,VALID,24.8327,VALID,360,VALID,0,
2011-05-02, 00:57:04,VALID,1001.14,VALID,0,INVALID,163.685,VALID,0,VALID,24.8308,VALID,354,VALID,0.600391,
2011-05-02, 00:58:04,VALID,1001.11,VALID,0,INVALID,163.67,VALID,0,VALID,24.8697,VALID,350,VALID,0.576563,
2011-05-02, 00:59:04,VALID,1001.11,VALID,0,INVALID,163.67,VALID,0,VALID,24.8892,VALID,349,VALID,0.531641,
2011-05-02, 01:00:04,VALID,1001.1,VALID,0,INVALID,163.647,VALID,0,VALID,24.9282,VALID,349,VALID,0.452734,
2011-05-02, 01:01:04,VALID,1001.09,VALID,0,INVALID,163.655,VALID,0,VALID,24.9476,VALID,349,VALID,0.355078,
2011-05-02, 01:02:04,VALID,1001.12,VALID,0,INVALID,163.67,VALID,0,VALID,24.9476,VALID,349,VALID,0.367188,
2011-05-02, 01:03:04,VALID,1001.09,VALID,0,INVALID,163.647,VALID,0,VALID,24.9866,VALID,349,VALID,0.518359,
2011-05-02, 01:04:04,VALID,1001.09,VALID,0,INVALID,163.685,VALID,0,VALID,24.9652,VALID,348,VALID,0.501172,
2011-05-02, 01:05:04,VALID,1001.06,VALID,0,INVALID,163.655,VALID,0,VALID,24.9866,VALID,348,VALID,0.51875,
2011-05-02, 01:06:04,VALID,1001.06,VALID,0,INVALID,163.655,VALID,0.100563,VALID,25.0255,VALID,342,VALID,0.477344,
2011-05-02, 01:07:04,VALID,1001.05,VALID,0,INVALID,163.624,VALID,0,VALID,25.0255,VALID,342,VALID,0.586328,
2011-05-02, 01:08:04,VALID,1001.04,VALID,0,INVALID,163.678,VALID,0,VALID,25.0255,VALID,342,VALID,0.483203,
2011-05-02, 01:09:04,VALID,1001.01,VALID,0,INVALID,163.655,VALID,0,VALID,25.0644,VALID,349,VALID,0.651953,
2011-05-02, 01:10:04,VALID,1001.02,VALID,0,INVALID,163.632,VALID,0,VALID,25.0839,VALID,350,VALID,0.472266,
2011-05-02, 01:11:04,VALID,1001.02,VALID,0,INVALID,163.639,VALID,0,VALID,25.1034,VALID,350,VALID,0.328516,
2011-05-02, 01:12:04,VALID,1001.04,VALID,0,INVALID,163.647,VALID,0,VALID,25.1229,VALID,350,VALID,0.380469,
2011-05-02, 01:13:04,VALID,1001.03,VALID,0,INVALID,163.67,VALID,0,VALID,25.1832,VALID,350,VALID,0.216406,
2011-05-02, 01:14:04,VALID,1001.03,VALID,0,INVALID,163.678,VALID,0,VALID,25.1618,VALID,350,VALID,0.303125,
2011-05-02, 01:15:04,VALID,1001,VALID,0,INVALID,163.639,VALID,0,VALID,25.2007,VALID,350,VALID,0.396875,
2011-05-02, 01:16:04,VALID,1001.02,VALID,0,INVALID,163.647,VALID,0,VALID,25.2007,VALID,350,VALID,0.459375,
2011-05-02, 01:17:04,VALID,1001.02,VALID,0,INVALID,163.655,VALID,0,VALID,25.2202,VALID,350,VALID,0.561328,
2011-05-02, 01:18:04,VALID,1001,VALID,0,INVALID,163.678,VALID,0,VALID,25.2202,VALID,350,VALID,0.389453,
2011-05-02, 01:19:04,VALID,1001.03,VALID,0,INVALID,163.67,VALID,0,VALID,25.2397,VALID,350,VALID,0.471484,
2011-05-02, 01:20:04,VALID,1001,VALID,0,INVALID,163.624,VALID,0,VALID,25.2397,VALID,350,VALID,0.399219,
2011-05-02, 01:21:04,VALID,1001.02,VALID,0,INVALID,163.655,VALID,0,VALID,25.2397,VALID,350,VALID,0.319922,
2011-05-02, 01:22:04,VALID,1001.01,VALID,0,INVALID,163.647,VALID,0,VALID,25.2786,VALID,347,VALID,0.587109,
2011-05-02, 01:23:04,VALID,1001.02,VALID,0,INVALID,163.617,VALID,0,VALID,25.2981,VALID,333,VALID,0.669531,
2011-05-02, 01:24:04,VALID,1001.02,VALID,0,INVALID,163.639,VALID,0,VALID,25.3176,VALID,340,VALID,0.510156,
2011-05-02, 01:25:04,VALID,1001.04,VALID,0,INVALID,163.639,VALID,0,VALID,25.3974,VALID,340,VALID,0.164453,
2011-05-02, 01:26:04,VALID,1001.02,VALID,0,INVALID,163.624,VALID,0,VALID,25.4169,VALID,340,VALID,0.346875,
2011-05-02, 01:27:04,VALID,1001.01,VALID,0,INVALID,163.639,VALID,0.100563,VALID,25.4149,VALID,340,VALID,0.350391,
2011-05-02, 01:28:04,VALID,1001.02,VALID,0,INVALID,163.632,VALID,0,VALID,25.3955,VALID,340,VALID,0.460938,
2011-05-02, 01:29:04,VALID,1001.01,VALID,0,INVALID,163.67,VALID,0,VALID,25.3565,VALID,340,VALID,0.5125,
2011-05-02, 01:30:04,VALID,1000.98,VALID,0,INVALID,163.662,VALID,0,VALID,25.2981,VALID,340,VALID,0.588672,
2011-05-02, 01:31:04,VALID,1001.01,VALID,0,INVALID,163.647,VALID,0,VALID,25.2397,VALID,340,VALID,0.574219,
2011-05-02, 01:32:04,VALID,1000.97,VALID,0,INVALID,163.685,VALID,0,VALID,25.1813,VALID,340,VALID,0.45625,
2011-05-02, 01:33:04,VALID,1000.97,VALID,0,INVALID,163.655,VALID,0,VALID,25.1637,VALID,340,VALID,0.334766,
2011-05-02, 01:34:04,VALID,1000.97,VALID,0,INVALID,163.639,VALID,0,VALID,25.1229,VALID,340,VALID,0.348828,
2011-05-02, 01:35:04,VALID,1000.94,VALID,0,INVALID,163.655,VALID,0,VALID,25.1034,VALID,340,VALID,0.410937,
2011-05-02, 01:36:04,VALID,1000.94,VALID,0,INVALID,163.647,VALID,0,VALID,25.1034,VALID,340,VALID,0.354297,
2011-05-02, 01:37:04,VALID,1000.93,VALID,0,INVALID,163.662,VALID,0,VALID,25.1229,VALID,340,VALID,0.00273437,
2011-05-02, 01:38:04,VALID,1000.94,VALID,0,INVALID,163.655,VALID,0,VALID,25.1248,VALID,340,VALID,0.289453,
2011-05-02, 01:39:04,VALID,1000.93,VALID,0,INVALID,163.655,VALID,0,VALID,25.0839,VALID,340,VALID,0.441797,
2011-05-02, 01:40:04,VALID,1000.94,VALID,0,INVALID,163.67,VALID,0,VALID,25.0644,VALID,340,VALID,0.444141,
2011-05-02, 01:41:04,VALID,1000.93,VALID,0,INVALID,163.662,VALID,0,VALID,25.045,VALID,340,VALID,0.533203,
2011-05-02, 01:42:04,VALID,1000.94,VALID,0,INVALID,163.67,VALID,0,VALID,25.006,VALID,343,VALID,0.603906,
2011-05-02, 01:43:04,VALID,1000.92,VALID,0,INVALID,163.678,VALID,0,VALID,24.9885,VALID,355,VALID,0.682422,
2011-05-02, 01:44:04,VALID,1000.91,VALID,0,INVALID,163.678,VALID,0,VALID,24.9087,VALID,355,VALID,0.628906,
2011-05-02, 01:45:04,VALID,1000.91,VALID,0,INVALID,163.662,VALID,0,VALID,24.8503,VALID,356,VALID,0.61875,
2011-05-02, 01:46:04,VALID,1000.91,VALID,0,INVALID,163.662,VALID,0,VALID,24.8522,VALID,356,VALID,0.648438,
2011-05-02, 01:47:04,VALID,1000.92,VALID,0,INVALID,163.678,VALID,0,VALID,24.7919,VALID,356,VALID,0.486328,
2011-05-02, 01:48:04,VALID,1000.94,VALID,0,INVALID,163.678,VALID,0,VALID,24.7743,VALID,356,VALID,0.540625,
2011-05-02, 01:49:04,VALID,1000.97,VALID,0,INVALID,163.693,VALID,0,VALID,24.7529,VALID,356,VALID,0.453906,
2011-05-02, 01:50:04,VALID,1000.97,VALID,0,INVALID,163.662,VALID,0,VALID,24.7548,VALID,356,VALID,0.502344,
2011-05-02, 01:51:04,VALID,1000.99,VALID,0,INVALID,163.701,VALID,0,VALID,24.714,VALID,356,VALID,0.478516,
2011-05-02, 01:52:04,VALID,1001.02,VALID,0,INVALID,163.685,VALID,0,VALID,24.714,VALID,356,VALID,0.492969,
2011-05-02, 01:53:04,VALID,1001.02,VALID,0,INVALID,163.685,VALID,0,VALID,24.714,VALID,356,VALID,0.578516,
2011-05-02, 01:54:04,VALID,1001.03,VALID,0,INVALID,163.685,VALID,0,VALID,24.6945,VALID,356,VALID,0.649219,
2011-05-02, 01:55:04,VALID,1001.05,VALID,0,INVALID,163.685,VALID,0,VALID,24.6945,VALID,355,VALID,0.592188,
2011-05-02, 01:56:04,VALID,1001.04,VALID,0,INVALID,163.67,VALID,0,VALID,24.7353,VALID,355,VALID,0.618359,
2011-05-02, 01:57:04,VALID,1001.09,VALID,0,INVALID,163.723,VALID,0,VALID,24.714,VALID,354,VALID,0.567187,
2011-05-02, 01:58:04,VALID,1001.05,VALID,0,INVALID,163.678,VALID,0,VALID,24.6732,VALID,354,VALID,0.574609,
2011-05-02, 01:59:04,VALID,1001.05,VALID,0,INVALID,163.67,VALID,0,VALID,24.714,VALID,354,VALID,0.469141,
2011-05-02, 02:00:04,VALID,1001.03,VALID,0,INVALID,163.678,VALID,0,VALID,24.7121,VALID,354,VALID,0.457812,
2011-05-02, 02:01:04,VALID,1001.02,VALID,0,INVALID,163.67,VALID,0,VALID,24.7724,VALID,353,VALID,0.592969,
2011-05-02, 02:02:04,VALID,1001.01,VALID,0,INVALID,163.655,VALID,0,VALID,24.7919,VALID,353,VALID,0.620703,
2011-05-02, 02:03:04,VALID,1001.03,VALID,0,INVALID,163.678,VALID,0,VALID,24.8308,VALID,351,VALID,0.758594,
2011-05-02, 02:04:04,VALID,1001.04,VALID,0,INVALID,163.67,VALID,0,VALID,24.9106,VALID,348,VALID,0.683984,
2011-05-02, 02:05:04,VALID,1001,VALID,0,INVALID,163.685,VALID,0,VALID,24.9671,VALID,348,VALID,0.530078,
2011-05-02, 02:06:04,VALID,1000.97,VALID,0,INVALID,163.67,VALID,0,VALID,25.045,VALID,348,VALID,0.469531,
2011-05-02, 02:07:04,VALID,1000.94,VALID,0,INVALID,163.67,VALID,0,VALID,25.0839,VALID,347,VALID,0.720312,
2011-05-02, 02:08:04,VALID,1000.96,VALID,0,INVALID,163.662,VALID,0,VALID,25.1229,VALID,349,VALID,0.616406,
2011-05-02, 02:09:04,VALID,1000.93,VALID,0,INVALID,163.685,VALID,0,VALID,25.1813,VALID,354,VALID,0.622656,
2011-05-02, 02:10:04,VALID,1000.9,VALID,0,INVALID,163.662,VALID,0,VALID,25.2397,VALID,344,VALID,0.648438,
2011-05-02, 02:11:04,VALID,1000.91,VALID,0,INVALID,163.655,VALID,0,VALID,25.2981,VALID,343,VALID,0.6,
2011-05-02, 02:12:04,VALID,1000.89,VALID,0,INVALID,163.647,VALID,0,VALID,25.337,VALID,344,VALID,0.624219,
2011-05-02, 02:13:04,VALID,1000.89,VALID,0,INVALID,163.655,VALID,0,VALID,25.3565,VALID,353,VALID,0.607031,
2011-05-02, 02:14:04,VALID,1000.87,VALID,0,INVALID,163.639,VALID,0.100563,VALID,25.4344,VALID,345,VALID,0.722266,
2011-05-02, 02:15:04,VALID,1000.84,VALID,0,INVALID,163.639,VALID,0,VALID,25.4325,VALID,347,VALID,0.648828,
2011-05-02, 02:16:04,VALID,1000.82,VALID,0,INVALID,163.655,VALID,0.100563,VALID,25.4539,VALID,349,VALID,0.652734,
2011-05-02, 02:17:04,VALID,1000.78,VALID,0,INVALID,163.639,VALID,0,VALID,25.4539,VALID,341,VALID,0.653125,
2011-05-02, 02:18:04,VALID,1000.75,VALID,0,INVALID,163.67,VALID,0.100563,VALID,25.4734,VALID,345,VALID,0.787891,
2011-05-02, 02:19:04,VALID,1000.74,VALID,0,INVALID,163.647,VALID,0.100563,VALID,25.4344,VALID,349,VALID,0.522266,
2011-05-02, 02:20:04,VALID,1000.67,VALID,0,INVALID,163.624,VALID,0.100563,VALID,25.4344,VALID,342,VALID,0.821875,
2011-05-02, 02:21:04,VALID,1000.61,VALID,0,INVALID,163.647,VALID,0.100563,VALID,25.413,VALID,349,VALID,0.821875,
2011-05-02, 02:22:04,VALID,1000.55,VALID,0,INVALID,163.632,VALID,0,VALID,25.4539,VALID,324,VALID,0.963672,
2011-05-02, 02:23:04,VALID,1000.51,VALID,0,INVALID,163.601,VALID,0,VALID,25.5337,VALID,344,VALID,1.04102,
2011-05-02, 02:24:04,VALID,1000.47,VALID,0,INVALID,163.639,VALID,0,VALID,25.5707,VALID,343,VALID,0.822656,
2011-05-02, 02:25:04,VALID,1000.43,VALID,0,INVALID,163.617,VALID,0.100563,VALID,25.5493,VALID,352,VALID,0.935156,
2011-05-02, 02:26:04,VALID,1000.42,VALID,0,INVALID,163.609,VALID,0.100563,VALID,25.5902,VALID,341,VALID,0.560547,
2011-05-02, 02:27:04,VALID,1000.4,VALID,0,INVALID,163.639,VALID,0,VALID,25.5493,VALID,346,VALID,0.885547,
2011-05-02, 02:28:04,VALID,1000.42,VALID,0,INVALID,163.617,VALID,0,VALID,25.5707,VALID,351,VALID,0.527344,
2011-05-02, 02:29:04,VALID,1000.43,VALID,0,INVALID,163.609,VALID,0,VALID,25.5707,VALID,349,VALID,0.491016,
2011-05-02, 02:30:04,VALID,1000.47,VALID,0,INVALID,163.601,VALID,0.100563,VALID,25.6116,VALID,343,VALID,0.703906,
2011-05-02, 02:31:04,VALID,1000.44,VALID,0,INVALID,163.594,VALID,0,VALID,25.6292,VALID,347,VALID,0.644141,
2011-05-02, 02:32:04,VALID,1000.46,VALID,0,INVALID,156.461,VALID,0,VALID,25.6681,VALID,355,VALID,0.705469,
2011-05-02, 02:33:04,VALID,1000.45,VALID,0,INVALID,147.657,VALID,0,VALID,25.6876,VALID,357,VALID,0.826172,
2011-05-02, 02:34:04,VALID,1000.44,VALID,0,INVALID,138.983,VALID,0.100563,VALID,25.7071,VALID,3,VALID,1.01133,
2011-05-02, 02:35:04,VALID,1000.43,VALID,0,INVALID,131.583,VALID,0.100563,VALID,25.7265,VALID,354,VALID,0.69375,
2011-05-02, 02:36:04,VALID,1000.45,VALID,0,INVALID,126.189,VALID,0.100563,VALID,25.7655,VALID,351,VALID,0.819531,
2011-05-02, 02:37:04,VALID,1000.46,VALID,0,INVALID,116.821,VALID,0,VALID,25.7655,VALID,14,VALID,1.07578,
2011-05-02, 02:38:04,VALID,1000.47,VALID,0,INVALID,113.846,VALID,0,VALID,25.8239,VALID,355,VALID,0.741016,
2011-05-02, 02:39:04,VALID,1000.49,VALID,0,INVALID,113.892,VALID,0.100563,VALID,25.8239,VALID,359,VALID,0.453125,
2011-05-02, 02:40:04,VALID,1000.51,VALID,0,INVALID,113.365,VALID,0,VALID,25.8044,VALID,246,VALID,0.265625,
2011-05-02, 02:41:04,VALID,1000.53,VALID,0,INVALID,112.16,VALID,0,VALID,25.785,VALID,354,VALID,0.635938,
2011-05-02, 02:42:04,VALID,1000.53,VALID,0,INVALID,111.221,VALID,0.100563,VALID,25.8044,VALID,341,VALID,0.264844,
2011-05-02, 02:43:04,VALID,1000.55,VALID,0,INVALID,110.527,VALID,0.100563,VALID,25.8044,VALID,339,VALID,0.433984,
2011-05-02, 02:44:04,VALID,1000.53,VALID,0,INVALID,109.253,VALID,0.100563,VALID,25.7635,VALID,341,VALID,0.678125,
2011-05-02, 02:45:04,VALID,1000.53,VALID,0,INVALID,112.221,VALID,0,VALID,25.7655,VALID,342,VALID,0.275391,
2011-05-02, 02:46:04,VALID,1000.53,VALID,0,INVALID,111.771,VALID,0,VALID,25.7655,VALID,351,VALID,0.492188,
2011-05-02, 02:47:04,VALID,1000.5,VALID,0,INVALID,112.862,VALID,0.100563,VALID,25.746,VALID,347,VALID,0.610937,
2011-05-02, 02:48:04,VALID,1000.5,VALID,0,INVALID,111.611,VALID,0,VALID,25.7265,VALID,346,VALID,0.686328,
2011-05-02, 02:49:04,VALID,1000.49,VALID,0,INVALID,111,VALID,0.100563,VALID,25.7071,VALID,3,VALID,0.595312,
2011-05-02, 02:50:04,VALID,1000.49,VALID,0,INVALID,110.237,VALID,0,VALID,25.7071,VALID,354,VALID,1.31797,
2011-05-02, 02:51:04,VALID,1000.48,VALID,0,INVALID,109.551,VALID,0,VALID,25.746,VALID,346,VALID,0.68125,
2011-05-02, 02:52:04,VALID,1000.47,VALID,0,INVALID,110.008,VALID,0,VALID,25.7265,VALID,353,VALID,0.705859,
2011-05-02, 02:53:04,VALID,1000.49,VALID,0,INVALID,111.023,VALID,0,VALID,25.6856,VALID,347,VALID,0.833203,
2011-05-02, 02:54:04,VALID,1000.47,VALID,0,INVALID,110.1,VALID,0,VALID,25.7265,VALID,357,VALID,1.19023,
2011-05-02, 02:55:04,VALID,1000.45,VALID,0,VALID,104,VALID,0,VALID,25.746,VALID,349,VALID,0.907422,
2011-05-02, 02:56:04,VALID,1000.45,VALID,0,INVALID,109.749,VALID,0,VALID,25.7674,VALID,353,VALID,0.584375,
2011-05-02, 02:57:04,VALID,1000.48,VALID,0,VALID,104,VALID,0,VALID,25.7869,VALID,354,VALID,1.01484,
2011-05-02, 02:58:04,VALID,1000.48,VALID,0,VALID,104,VALID,0,VALID,25.7655,VALID,347,VALID,1.10859,
2011-05-02, 02:59:04,VALID,1000.48,VALID,0,VALID,104,VALID,0,VALID,25.8044,VALID,347,VALID,1.13633,
2011-05-02, 03:00:04,VALID,1000.44,VALID,0,VALID,104,VALID,0,VALID,25.785,VALID,359,VALID,0.597656,
2011-05-02, 03:01:04,VALID,1000.46,VALID,0,VALID,104,VALID,0.100563,VALID,25.785,VALID,340,VALID,0.861328,
2011-05-02, 03:02:04,VALID,1000.43,VALID,0,VALID,104,VALID,0,VALID,25.785,VALID,358,VALID,0.671484,
2011-05-02, 03:03:04,VALID,1000.38,VALID,0,VALID,104,VALID,0.100563,VALID,25.785,VALID,358,VALID,1.0582,
2011-05-02, 03:04:04,VALID,1000.36,VALID,0,VALID,104,VALID,0,VALID,25.8044,VALID,354,VALID,1.05273,
2011-05-02, 03:05:04,VALID,1000.34,VALID,0,VALID,104,VALID,0,VALID,25.8434,VALID,3,VALID,0.674219,
2011-05-02, 03:06:04,VALID,1000.33,VALID,0,VALID,103.631,VALID,0,VALID,25.8434,VALID,339,VALID,1.12812,
2011-05-02, 03:07:04,VALID,1000.34,VALID,0,VALID,102.624,VALID,0,VALID,25.8629,VALID,347,VALID,1.27813,
2011-05-02, 03:08:04,VALID,1000.35,VALID,0,VALID,102.494,VALID,0,VALID,25.9427,VALID,350,VALID,0.672656,
2011-05-02, 03:09:04,VALID,1000.32,VALID,0,VALID,102.38,VALID,0,VALID,25.9213,VALID,354,VALID,0.779688,
2011-05-02, 03:10:04,VALID,1000.31,VALID,0,VALID,102.052,VALID,0,VALID,25.9213,VALID,351,VALID,1.34805,
2011-05-02, 03:11:04,VALID,1000.33,VALID,0,VALID,101.846,VALID,0,VALID,25.9213,VALID,3,VALID,0.909766,
2011-05-02, 03:12:04,VALID,1000.31,VALID,0,VALID,102.013,VALID,0.100563,VALID,25.9408,VALID,355,VALID,0.859375,
2011-05-02, 03:13:04,VALID,1000.33,VALID,0,VALID,102.822,VALID,0,VALID,25.9213,VALID,350,VALID,0.659375,
2011-05-02, 03:14:04,VALID,1000.3,VALID,0,VALID,102.288,VALID,0,VALID,25.9018,VALID,348,VALID,0.846875,
2011-05-02, 03:15:04,VALID,1000.3,VALID,0,VALID,102.555,VALID,0,VALID,25.9038,VALID,360,VALID,1.27227,
2011-05-02, 03:16:04,VALID,1000.34,VALID,0,VALID,102.471,VALID,0,VALID,25.9427,VALID,332,VALID,0.828125,
2011-05-02, 03:17:04,VALID,1000.34,VALID,0,VALID,101.96,VALID,0,VALID,25.9408,VALID,353,VALID,0.838281,
2011-05-02, 03:18:04,VALID,1000.34,VALID,0,VALID,101.632,VALID,0,VALID,25.9622,VALID,346,VALID,1.02305,
2011-05-02, 03:19:04,VALID,1000.37,VALID,0,VALID,101.769,VALID,0,VALID,25.9622,VALID,343,VALID,0.682031,
2011-05-02, 03:20:04,VALID,1000.38,VALID,0,VALID,101.929,VALID,0,VALID,25.9408,VALID,1,VALID,1.01328,
2011-05-02, 03:21:04,VALID,1000.39,VALID,0,VALID,102.311,VALID,0,VALID,25.8998,VALID,347,VALID,0.714453,
2011-05-02, 03:22:04,VALID,1000.39,VALID,0,VALID,102.288,VALID,0,VALID,25.9408,VALID,354,VALID,1.08672,
2011-05-02, 03:23:04,VALID,1000.37,VALID,0,VALID,101.891,VALID,0,VALID,25.9213,VALID,350,VALID,1.07187,
2011-05-02, 03:24:04,VALID,1000.39,VALID,0,VALID,101.754,VALID,0,VALID,25.9408,VALID,348,VALID,0.819922,
2011-05-02, 03:25:04,VALID,1000.38,VALID,0,VALID,101.151,VALID,0,VALID,25.9427,VALID,349,VALID,1.52422,
2011-05-02, 03:26:04,VALID,1000.38,VALID,0,VALID,101.022,VALID,0,VALID,25.9408,VALID,335,VALID,0.796094,
2011-05-02, 03:27:04,VALID,1000.36,VALID,0,VALID,101.189,VALID,0,VALID,25.9817,VALID,353,VALID,0.938281,
2011-05-02, 03:28:04,VALID,1000.36,VALID,0,VALID,101.067,VALID,0,VALID,25.9408,VALID,358,VALID,1.11055,
2011-05-02, 03:29:04,VALID,1000.37,VALID,0,VALID,101.098,VALID,0,VALID,25.9408,VALID,348,VALID,0.7625,
2011-05-02, 03:30:04,VALID,1000.36,VALID,0,VALID,100.839,VALID,0,VALID,25.9622,VALID,360,VALID,1.47695,
2011-05-02, 03:31:04,VALID,1000.36,VALID,0,VALID,100.976,VALID,0,VALID,25.9408,VALID,354,VALID,1.11133,
2011-05-02, 03:32:04,VALID,1000.35,VALID,0,VALID,100.327,VALID,0,VALID,25.9408,VALID,358,VALID,1.26797,
2011-05-02, 03:33:04,VALID,1000.31,VALID,0,VALID,100.114,VALID,0,VALID,25.9797,VALID,358,VALID,1.43008,
2011-05-02, 03:34:04,VALID,1000.33,VALID,0,VALID,99.8468,VALID,0,VALID,25.9992,VALID,338,VALID,1.03359,
2011-05-02, 03:35:04,VALID,1000.32,VALID,0,VALID,99.4806,VALID,0,VALID,26.0206,VALID,17,VALID,1.64805,
2011-05-02, 03:36:04,VALID,1000.3,VALID,0,VALID,98.794,VALID,0,VALID,26.0791,VALID,357,VALID,1.71172,
2011-05-02, 03:37:04,VALID,1000.31,VALID,0,VALID,98.6719,VALID,0,VALID,26.116,VALID,355,VALID,1.03516,
2011-05-02, 03:38:04,VALID,1000.29,VALID,0,VALID,98.2676,VALID,0,VALID,26.155,VALID,350,VALID,1.05391,
2011-05-02, 03:39:04,VALID,1000.3,VALID,0,VALID,98.3744,VALID,0,VALID,26.155,VALID,337,VALID,0.588281,
2011-05-02, 03:40:04,VALID,1000.27,VALID,0,VALID,98.2447,VALID,0,VALID,26.155,VALID,354,VALID,1.30742,
2011-05-02, 03:41:04,VALID,1000.32,VALID,0,VALID,98.9542,VALID,0,VALID,26.116,VALID,360,VALID,0.894922,
2011-05-02, 03:42:04,VALID,1000.31,VALID,0,VALID,99.0229,VALID,0,VALID,26.0966,VALID,1,VALID,1.02891,